Location: Devore Heights
(34.2372°N, 117.4156°W)
Time: 06:59:55
(UTC+00:00)

Transit 2A - All Passes

Search period start: 19 September 2024 00:00
Search period end: 29 September 2024 00:00
Orbit: 590 x 960 km, 66.7° (Epoch: 18 September)

Date Brightness Start Highest point End Pass type
(mag) Time Alt. Az. Time Alt. Az. Time Alt. Az.
19 Sep - 00:28:57 10° S 00:34:21 44° ESE 00:40:12 10° NE daylight
19 Sep - 02:12:43 10° WSW 02:17:42 28° NW 02:23:00 10° N visible
19 Sep - 09:20:11 10° N 09:24:37 20° NE 09:28:49 10° E visible
19 Sep - 11:02:19 10° NNW 11:08:19 62° WSW 11:13:45 10° SSE night (unlit)
19 Sep - 23:54:15 10° SSE 23:59:08 29° ESE 00:04:20 10° NE daylight
20 Sep - 01:36:35 10° SW 01:42:04 39° WNW 01:47:55 10° NNE daylight
20 Sep - 08:45:38 10° NNE 08:48:49 14° NE 08:51:53 10° ENE visible
20 Sep - 10:26:49 10° NNW 10:32:57 87° ENE 10:38:30 10° SSE night (unlit)
20 Sep - 12:14:14 10° W 12:15:02 10° W 12:15:49 10° WSW night (unlit)
20 Sep - 23:20:03 10° SE 23:23:58 19° ESE 23:28:06 10° ENE daylight
21 Sep - 01:00:47 10° SW 01:06:31 58° WNW 01:12:42 10° NNE daylight
21 Sep - 02:50:39 10° NW 02:51:05 10° NW 02:51:32 10° NW visible
21 Sep - 09:51:28 10° NNW 09:57:29 58° ENE 10:02:58 10° SE night (unlit)
21 Sep - 11:36:15 10° WNW 11:39:57 17° WSW 11:43:28 10° SW night (unlit)
21 Sep - 22:46:57 10° ESE 22:48:53 12° E 22:50:51 10° E daylight
22 Sep - 00:25:14 10° SSW 00:31:02 85° WNW 00:37:21 10° NNE daylight
22 Sep - 02:11:56 10° WNW 02:15:12 15° NW 02:18:33 10° NNW visible
22 Sep - 09:16:14 10° NNW 09:21:56 39° ENE 09:27:10 10° SE visible
22 Sep - 10:59:55 10° NW 11:04:48 27° WSW 11:09:21 10° SSW night (unlit)
22 Sep - 23:49:57 10° SSW 23:55:40 65° ESE 00:01:51 10° NNE daylight
23 Sep - 01:34:59 10° W 01:39:23 21° NW 01:43:58 10° N daylight
23 Sep - 08:41:09 10° N 08:46:18 27° NE 08:51:04 10° ESE visible
23 Sep - 10:24:00 10° NW 10:29:35 42° WSW 10:34:42 10° S night (unlit)
23 Sep - 23:14:56 10° S 23:20:21 43° ESE 23:26:11 10° NE daylight
24 Sep - 00:58:33 10° WSW 01:03:40 29° NW 01:09:03 10° N daylight
24 Sep - 08:06:17 10° N 08:10:33 19° NE 08:14:35 10° E visible
24 Sep - 09:48:19 10° NNW 09:54:18 65° WSW 09:59:41 10° SSE night (unlit)
24 Sep - 22:40:16 10° SSE 22:45:08 28° ESE 22:50:17 10° NE daylight
25 Sep - 00:22:28 10° SW 00:28:01 41° WNW 00:33:57 10° NNE daylight
25 Sep - 07:31:48 10° NNE 07:34:43 14° NE 07:37:32 10° ENE visible
25 Sep - 09:12:49 10° NNW 09:18:54 84° ENE 09:24:23 10° SSE night (unlit)
25 Sep - 10:59:44 10° W 11:01:01 11° W 11:02:15 10° WSW night (unlit)
25 Sep - 22:06:06 10° SE 22:09:58 18° ESE 22:13:59 10° ENE daylight
25 Sep - 23:46:39 10° SW 23:52:28 60° WNW 23:58:42 10° NNE daylight
26 Sep - 01:35:42 10° NW 01:36:59 11° NW 01:38:17 10° NNW daylight
26 Sep - 08:37:27 10° NNW 08:43:26 56° ENE 08:48:49 10° SE night (unlit)
26 Sep - 10:22:07 10° WNW 10:25:54 18° WSW 10:29:29 10° SW night (unlit)
26 Sep - 21:33:13 10° ESE 21:34:50 11° E 21:36:30 10° E daylight
26 Sep - 23:11:07 10° SSW 23:16:59 88° WNW 23:23:20 10° NNE daylight
27 Sep - 00:57:37 10° W 01:01:05 15° NW 01:04:38 10° N daylight
27 Sep - 08:02:14 10° N 08:07:50 37° NE 08:12:58 10° ESE night (unlit)
27 Sep - 09:45:49 10° NW 09:50:45 28° WSW 09:55:18 10° SSW night (unlit)
27 Sep - 22:35:50 10° SSW 22:41:36 62° ESE 22:47:48 10° NNE daylight
28 Sep - 00:20:44 10° W 00:25:17 21° NW 00:30:00 10° N daylight
28 Sep - 07:27:10 10° N 07:32:10 26° NE 07:36:49 10° ESE visible
28 Sep - 09:09:55 10° NW 09:15:31 43° WSW 09:20:36 10° S night (unlit)
28 Sep - 22:00:52 10° S 22:06:17 41° ESE 22:12:05 10° NE daylight
28 Sep - 23:44:20 10° WSW 23:49:33 30° NW 23:55:02 10° N daylight
